Simultaneous Nadir Overpasses (SNOs) Predictions

Prediction of SNOs between AQUA and GOES-15 Satellite Orbit:

Table of predicted SNOs for the next 14.0 days since TLE Epoch: 12/12/2015
Index Date Time (AQUA) AQUA Lat,Lon GOES-15 Lat,Lon Distance(km) Time Diff (sec)
1 12/13/2015 10:19:40 -0.89,-131.19 -0.04,-135.28 465.58 80
2 12/13/2015 22:41:05 -0.16,-136.39 0.05,-135.25 129.26 80
3 12/15/2015 22:28:52 0.41,-133.42 0.05,-135.19 201.69 80
4 12/16/2015 10:50:08 0.64,-138.58 -0.07,-135.21 383.14 80
5 12/18/2015 10:37:55 0.05,-135.61 -0.06,-135.15 52.90 80
6 12/20/2015 10:25:42 -0.55,-132.64 -0.06,-135.08 276.96 80
7 12/20/2015 22:47:06 -0.54,-137.83 0.07,-135.03 319.12 80
8 12/22/2015 22:34:53 0.09,-134.87 0.07,-134.96 10.18 80
9 12/24/2015 22:22:40 0.72,-131.91 0.06,-134.88 339.11 80
10 12/25/2015 10:43:55 0.39,-137.06 -0.07,-134.90 245.50 80




NCC Satellite Simultaneous Nadir Overpasses (SNOs) Prediction Service
